Hourly Weather Allende

Today, 5 December, Saturday

Time Temperature Precipitation Wind Pressure Humidity
00:00 +9°C° 0 mm 1 mps 733 mmHg 55%
01:00 +9°C° 0 mm 1 mps 733 mmHg 58%
02:00 +7°C° 0 mm 0 mps 732 mmHg 61%
03:00 +7°C° 0 mm 0 mps 732 mmHg 62%
04:00 +7°C° 0 mm 0 mps 732 mmHg 63%
05:00 +8°C° 0 mm 1 mps 732 mmHg 64%
06:00 +9°C° 0 mm 1 mps 733 mmHg 61%
07:00 +9°C° 0 mm 0 mps 733 mmHg 57%
08:00 +10°C° 0 mm 0 mps 734 mmHg 54%
09:00 +12°C° 0 mm 1 mps 734 mmHg 51%
10:00 +13°C° 0 mm 2 mps 734 mmHg 48%
11:00 +14°C° 0 mm 2 mps 734 mmHg 45%
12:00 +14°C° 0 mm 2 mps 733 mmHg 44%
13:00 +14°C° 0 mm 3 mps 732 mmHg 43%
14:00 +14°C° 0 mm 3 mps 731 mmHg 42%
15:00 +13°C° 0 mm 4 mps 732 mmHg 46%
16:00 +12°C° 0 mm 4 mps 732 mmHg 51%
17:00 +10°C° 0 mm 5 mps 732 mmHg 55%
18:00 +9°C° 0 mm 5 mps 732 mmHg 61%
19:00 +8°C° 0 mm 5 mps 733 mmHg 66%
20:00 +7°C° 0 mm 4 mps 733 mmHg 71%
21:00 +7°C° 0 mm 4 mps 733 mmHg 73%
22:00 +7°C° 0 mm 3 mps 733 mmHg 74%
23:00 +7°C° 0 mm 2 mps 733 mmHg 76%

Tomorrow, 6 December, Sunday

Time Temperature Precipitation Wind Pressure Humidity
00:00 +7°C° 0 mm 2 mps 733 mmHg 76%
01:00 +6°C° 0 mm 2 mps 732 mmHg 77%
02:00 +6°C° 0 mm 2 mps 732 mmHg 78%
03:00 +6°C° 0 mm 2 mps 732 mmHg 78%
04:00 +6°C° 0 mm 2 mps 732 mmHg 78%
05:00 +6°C° 0 mm 1 mps 732 mmHg 78%
06:00 +8°C° 0 mm 1 mps 732 mmHg 71%
07:00 +8°C° 0 mm 2 mps 732 mmHg 64%
08:00 +9°C° 0 mm 2 mps 733 mmHg 57%
09:00 +13°C° 0 mm 2 mps 733 mmHg 48%
10:00 +14°C° 0 mm 3 mps 732 mmHg 40%
11:00 +17°C° 0 mm 3 mps 732 mmHg 32%
12:00 +18°C° 0 mm 3 mps 731 mmHg 29%
13:00 +20°C° 0 mm 4 mps 731 mmHg 27%
14:00 +21°C° 0 mm 4 mps 730 mmHg 25%
15:00 +19°C° 0 mm 3 mps 730 mmHg 29%
16:00 +17°C° 0 mm 3 mps 730 mmHg 34%
17:00 +15°C° 0 mm 2 mps 730 mmHg 38%
18:00 +14°C° 0 mm 2 mps 730 mmHg 39%
19:00 +13°C° 0 mm 2 mps 730 mmHg 40%
20:00 +12°C° 0 mm 1 mps 731 mmHg 42%
21:00 +12°C° 0 mm 1 mps 731 mmHg 42%
22:00 +11°C° 0 mm 1 mps 731 mmHg 43%
23:00 +11°C° 0 mm 1 mps 731 mmHg 44%

Day after tomorrow, 7 December, Monday

Time Temperature Precipitation Wind Pressure Humidity
00:00 +10°C° 0 mm 1 mps 731 mmHg 45%
01:00 +10°C° 0 mm 1 mps 730 mmHg 47%
02:00 +9°C° 0 mm 1 mps 730 mmHg 49%
03:00 +8°C° 0 mm 0 mps 730 mmHg 50%
04:00 +8°C° 0 mm 0 mps 731 mmHg 51%
05:00 +7°C° 0 mm 0 mps 731 mmHg 52%
06:00 +9°C° 0 mm 0 mps 732 mmHg 47%
07:00 +13°C° 0 mm 1 mps 732 mmHg 42%
08:00 +15°C° 0 mm 1 mps 733 mmHg 38%
09:00 +16°C° 0 mm 1 mps 733 mmHg 34%
10:00 +19°C° 0 mm 1 mps 733 mmHg 31%
11:00 +21°C° 0 mm 1 mps 733 mmHg 28%
12:00 +21°C° 0 mm 1 mps 732 mmHg 27%
13:00 +22°C° 0 mm 1 mps 732 mmHg 26%
14:00 +22°C° 0 mm 1 mps 731 mmHg 24%
15:00 +20°C° 0 mm 1 mps 731 mmHg 29%
16:00 +18°C° 0 mm 2 mps 731 mmHg 33%
17:00 +16°C° 0 mm 2 mps 731 mmHg 38%
18:00 +15°C° 0 mm 2 mps 732 mmHg 39%
19:00 +14°C° 0 mm 2 mps 732 mmHg 41%
20:00 +13°C° 0 mm 3 mps 733 mmHg 43%
21:00 +13°C° 0 mm 2 mps 733 mmHg 44%
22:00 +13°C° 0 mm 2 mps 733 mmHg 45%
23:00 +12°C° 0 mm 2 mps 733 mmHg 47%

8 December, Tuesday

Time Temperature Precipitation Wind Pressure Humidity
00:00 +12°C° 0 mm 2 mps 733 mmHg 48%
01:00 +12°C° 0 mm 2 mps 733 mmHg 48%
02:00 +10°C° 0 mm 2 mps 732 mmHg 49%
03:00 +10°C° 0 mm 2 mps 733 mmHg 50%
04:00 +10°C° 0 mm 2 mps 733 mmHg 51%
05:00 +10°C° 0 mm 1 mps 733 mmHg 52%
06:00 +12°C° 0 mm 1 mps 733 mmHg 49%
07:00 +13°C° 0 mm 1 mps 734 mmHg 46%
08:00 +15°C° 0 mm 2 mps 734 mmHg 43%
09:00 +16°C° 0 mm 2 mps 734 mmHg 39%
10:00 +18°C° 0 mm 2 mps 734 mmHg 35%
11:00 +19°C° 0 mm 2 mps 734 mmHg 31%
12:00 +20°C° 0 mm 2 mps 734 mmHg 29%
13:00 +21°C° 0 mm 2 mps 733 mmHg 28%
14:00 +21°C° 0 mm 2 mps 732 mmHg 27%
15:00 +19°C° 0 mm 2 mps 732 mmHg 31%
16:00 +17°C° 0 mm 2 mps 732 mmHg 35%
17:00 +16°C° 0 mm 2 mps 732 mmHg 39%
18:00 +15°C° 0 mm 2 mps 733 mmHg 40%
19:00 +15°C° 0 mm 2 mps 733 mmHg 41%
20:00 +13°C° 0 mm 3 mps 733 mmHg 42%
21:00 +13°C° 0 mm 3 mps 733 mmHg 43%
22:00 +13°C° 0 mm 3 mps 734 mmHg 44%
23:00 +12°C° 0 mm 3 mps 734 mmHg 45%

9 December, Wednesday

Time Temperature Precipitation Wind Pressure Humidity
00:00 +12°C° 0 mm 3 mps 733 mmHg 46%
01:00 +11°C° 0 mm 3 mps 733 mmHg 47%
02:00 +12°C° 0 mm 2 mps 733 mmHg 48%
03:00 +10°C° 0 mm 2 mps 732 mmHg 50%
04:00 +10°C° 0 mm 2 mps 732 mmHg 52%
05:00 +9°C° 0 mm 2 mps 732 mmHg 54%
06:00 +12°C° 0 mm 2 mps 733 mmHg 51%
07:00 +13°C° 0 mm 1 mps 733 mmHg 48%
08:00 +15°C° 0 mm 1 mps 734 mmHg 45%
09:00 +17°C° 0 mm 2 mps 734 mmHg 41%
10:00 +18°C° 0 mm 2 mps 733 mmHg 37%
11:00 +20°C° 0 mm 2 mps 733 mmHg 33%
12:00 +21°C° 0 mm 3 mps 732 mmHg 32%
13:00 +22°C° 0 mm 3 mps 732 mmHg 31%
14:00 +22°C° 0 mm 4 mps 731 mmHg 31%
15:00 +21°C° 0 mm 4 mps 731 mmHg 36%
16:00 +19°C° 0 mm 3 mps 730 mmHg 41%
17:00 +18°C° 0 mm 3 mps 730 mmHg 46%
18:00 +17°C° 0 mm 3 mps 730 mmHg 48%
19:00 +16°C° 0 mm 3 mps 730 mmHg 51%
20:00 +15°C° 0 mm 4 mps 730 mmHg 53%
21:00 +14°C° 0 mm 4 mps 730 mmHg 56%
22:00 +14°C° 0 mm 4 mps 730 mmHg 59%
23:00 +13°C° 0 mm 4 mps 730 mmHg 61%

10 December, Thursday

Time Temperature Precipitation Wind Pressure Humidity
00:00 +13°C° 0 mm 4 mps 729 mmHg 65%
01:00 +13°C° 0 mm 4 mps 728 mmHg 69%
02:00 +13°C° 0 mm 5 mps 728 mmHg 72%
03:00 +12°C° 0 mm 4 mps 728 mmHg 78%
04:00 +12°C° 0 mm 4 mps 727 mmHg 83%
05:00 +12°C° 0 mm 4 mps 727 mmHg 88%
06:00 +12°C° 0 mm 3 mps 727 mmHg 86%
07:00 +14°C° 0 mm 2 mps 727 mmHg 84%
08:00 +15°C° 0 mm 2 mps 728 mmHg 81%
09:00 +16°C° 0 mm 2 mps 728 mmHg 76%
10:00 +18°C° 0 mm 2 mps 728 mmHg 70%
11:00 +19°C° 0 mm 2 mps 727 mmHg 64%
12:00 +19°C° 0 mm 2 mps 727 mmHg 63%
13:00 +20°C° 0 mm 2 mps 726 mmHg 63%
14:00 +20°C° 0 mm 2 mps 726 mmHg 62%
15:00 +19°C° 0 mm 2 mps 726 mmHg 66%
16:00 +18°C° 0 mm 2 mps 726 mmHg 70%
17:00 +17°C° 0 mm 2 mps 725 mmHg 73%
18:00 +17°C° 0 mm 2 mps 726 mmHg 76%
19:00 +16°C° 0 mm 2 mps 726 mmHg 79%
20:00 +15°C° 0 mm 2 mps 726 mmHg 82%
21:00 +15°C° 0 mm 2 mps 727 mmHg 81%
22:00 +15°C° 0 mm 2 mps 727 mmHg 80%
23:00 +14°C° 0 mm 3 mps 727 mmHg 79%
Show more